Time,TemperatureF,DewpointF,PressureIn,WindDirection,WindDirectionDegrees,WindSpeedMPH,WindSpeedGustMPH,Humidity,HourlyPrecipIn,Conditions,Clouds,dailyrainin,SoftwareType,DateUTC
2013-03-20 00:04:00,48.8,12.7,29.93,WNW,297,0.0,0.0,23,0.00,,,0.02,LWC V2.00 B2112,2013-03-20 04:04:00,
2013-03-20 00:09:00,48.3,10.2,29.93,NW,306,0.0,0.0,21,0.00,,,0.02,LWC V2.00 B2112,2013-03-20 04:09:00,
2013-03-20 00:14:00,48.3,10.2,29.92,West,281,0.0,0.0,21,0.00,,,0.02,LWC V2.00 B2112,2013-03-20 04:14:00,
2013-03-20 00:19:00,48.0,11.0,29.92,West,281,0.0,0.0,22,0.00,,,0.02,LWC V2.00 B2112,2013-03-20 04:19:00,
2013-03-20 00:24:00,47.6,12.6,29.92,NW,304,0.0,0.0,24,0.00,,,0.02,LWC V2.00 B2112,2013-03-20 04:24:00,
2013-03-20 00:29:00,47.1,13.1,29.93,West,272,0.0,0.0,25,0.00,,,0.02,LWC V2.00 B2112,2013-03-20 04:29:00,
2013-03-20 00:34:00,46.4,12.5,29.93,West,272,0.0,0.0,25,0.00,,,0.02,LWC V2.00 B2112,2013-03-20 04:34:00,
2013-03-20 00:39:00,46.0,9.3,29.93,WNW,292,0.0,0.0,22,0.00,,,0.02,LWC V2.00 B2112,2013-03-20 04:39:00,
2013-03-20 00:44:00,46.2,10.5,29.93,WNW,296,0.0,0.0,23,0.00,,,0.02,LWC V2.00 B2112,2013-03-20 04:44:00,
2013-03-20 00:49:00,46.2,8.4,29.93,WNW,288,0.0,0.0,21,0.00,,,0.02,LWC V2.00 B2112,2013-03-20 04:49:00,
2013-03-20 00:59:00,46.2,10.5,29.93,WNW,295,0.0,0.0,23,0.00,,,0.02,LWC V2.00 B2112,2013-03-20 04:59:00,
2013-03-20 01:04:00,46.0,10.3,29.93,WNW,295,0.0,0.0,23,0.00,,,0.02,LWC V2.00 B2112,2013-03-20 05:04:00,
2013-03-20 01:09:00,45.7,8.0,29.93,WNW,295,0.0,0.0,21,0.00,,,0.02,LWC V2.00 B2112,2013-03-20 05:09:00,
2013-03-20 01:14:00,45.5,12.6,29.93,WNW,295,0.0,0.0,26,0.00,,,0.02,LWC V2.00 B2112,2013-03-20 05:14:00,
2013-03-20 01:19:00,45.4,9.8,29.93,WNW,295,0.0,0.0,23,0.00,,,0.02,LWC V2.00 B2112,2013-03-20 05:19:00,
2013-03-20 01:24:00,45.4,7.8,29.93,NW,316,0.0,0.0,21,0.00,,,0.02,LWC V2.00 B2112,2013-03-20 05:24:00,
2013-03-20 01:29:00,45.5,8.9,29.93,NW,305,0.0,0.0,22,0.00,,,0.00,LWC V2.00 B2112,2013-03-20 05:29:00,
2013-03-20 01:34:00,45.4,6.7,29.93,WNW,297,0.0,0.0,20,0.00,,,0.00,LWC V2.00 B2112,2013-03-20 05:34:00,
2013-03-20 01:39:00,45.4,7.8,29.93,WNW,297,0.0,0.0,21,0.00,,,0.00,LWC V2.00 B2112,2013-03-20 05:39:00,
2013-03-20 01:44:00,45.2,7.6,29.93,NW,318,0.0,0.0,21,0.00,,,0.00,LWC V2.00 B2112,2013-03-20 05:44:00,
2013-03-20 01:49:00,45.1,5.3,29.93,NW,318,0.0,0.0,19,0.00,,,0.00,LWC V2.00 B2112,2013-03-20 05:49:00,
2013-03-20 01:54:00,44.9,8.4,29.93,NW,310,0.0,0.0,22,0.00,,,0.00,LWC V2.00 B2112,2013-03-20 05:54:00,
2013-03-20 01:59:00,44.6,10.1,29.93,NW,310,0.0,0.0,24,0.00,,,0.00,LWC V2.00 B2112,2013-03-20 05:59:00,
2013-03-20 02:04:00,44.1,13.1,29.93,NW,310,0.0,0.0,28,0.00,,,0.00,LWC V2.00 B2112,2013-03-20 06:04:00,
2013-03-20 02:09:00,43.8,8.4,29.93,NW,307,0.0,0.0,23,0.00,,,0.00,LWC V2.00 B2112,2013-03-20 06:09:00,
2013-03-20 02:14:00,43.8,6.4,29.92,NW,307,0.0,0.0,21,0.00,,,0.00,LWC V2.00 B2112,2013-03-20 06:14:00,
2013-03-20 02:19:00,43.9,9.5,29.92,NW,307,0.0,0.0,24,0.00,,,0.00,LWC V2.00 B2112,2013-03-20 06:19:00,
2013-03-20 02:24:00,43.5,10.9,29.92,NW,307,0.0,0.0,26,0.00,,,0.00,LWC V2.00 B2112,2013-03-20 06:24:00,
2013-03-20 02:29:00,43.1,10.6,29.93,NW,307,0.0,0.0,26,0.00,,,0.00,LWC V2.00 B2112,2013-03-20 06:29:00,
2013-03-20 02:34:00,42.6,11.8,29.93,NW,307,0.0,0.0,28,0.00,,,0.00,LWC V2.00 B2112,2013-03-20 06:34:00,
2013-03-20 02:39:00,42.2,10.6,29.93,NW,307,0.0,0.0,27,0.00,,,0.00,LWC V2.00 B2112,2013-03-20 06:39:00,
2013-03-20 02:44:00,42.1,10.6,29.93,NW,307,0.0,0.0,27,0.00,,,0.00,LWC V2.00 B2112,2013-03-20 06:44:00,
2013-03-20 02:49:00,41.9,8.7,29.93,NW,306,0.0,0.0,25,0.00,,,0.00,LWC V2.00 B2112,2013-03-20 06:49:00,
2013-03-20 02:54:00,41.6,8.4,29.93,NW,306,0.0,0.0,25,0.00,,,0.00,LWC V2.00 B2112,2013-03-20 06:54:00,
2013-03-20 02:59:00,41.5,10.9,29.93,NW,306,0.0,0.0,28,0.00,,,0.00,LWC V2.00 B2112,2013-03-20 06:59:00,
2013-03-20 03:04:00,41.1,9.7,29.93,NW,306,0.0,0.0,27,0.00,,,0.00,LWC V2.00 B2112,2013-03-20 07:04:00,
2013-03-20 03:09:00,40.5,10.8,29.93,NW,306,0.0,0.0,29,0.00,,,0.00,LWC V2.00 B2112,2013-03-20 07:09:00,
2013-03-20 03:14:00,40.1,8.8,29.93,NW,307,0.0,0.0,27,0.00,,,0.00,LWC V2.00 B2112,2013-03-20 07:14:00,
2013-03-20 03:19:00,39.9,8.7,29.93,NW,307,0.0,0.0,27,0.00,,,0.00,LWC V2.00 B2112,2013-03-20 07:19:00,
2013-03-20 03:24:00,39.8,8.6,29.93,West,276,0.0,0.0,27,0.00,,,0.00,LWC V2.00 B2112,2013-03-20 07:24:00,
2013-03-20 03:29:00,39.6,8.4,29.92,West,276,0.0,0.0,27,0.00,,,0.00,LWC V2.00 B2112,2013-03-20 07:29:00,
2013-03-20 03:34:00,39.6,8.4,29.92,West,276,0.0,0.0,27,0.00,,,0.00,LWC V2.00 B2112,2013-03-20 07:34:00,
2013-03-20 03:39:00,39.3,9.7,29.92,West,276,0.0,0.0,29,0.00,,,0.00,LWC V2.00 B2112,2013-03-20 07:39:00,
2013-03-20 03:44:00,39.1,8.0,29.92,West,276,0.0,0.0,27,0.00,,,0.00,LWC V2.00 B2112,2013-03-20 07:44:00,
2013-03-20 03:49:00,38.8,9.3,29.92,West,276,0.0,0.0,29,0.00,,,0.00,LWC V2.00 B2112,2013-03-20 07:49:00,
2013-03-20 03:54:00,38.5,8.3,29.92,West,276,0.0,0.0,28,0.00,,,0.00,LWC V2.00 B2112,2013-03-20 07:54:00,
2013-03-20 03:59:00,38.3,8.9,29.92,West,276,0.0,0.0,29,0.00,,,0.00,LWC V2.00 B2112,2013-03-20 07:59:00,
2013-03-20 04:04:00,38.3,7.3,29.92,WNW,302,0.0,0.0,27,0.00,,,0.00,LWC V2.00 B2112,2013-03-20 08:04:00,
2013-03-20 04:09:00,38.6,8.3,29.92,NNW,341,0.0,0.0,28,0.00,,,0.00,LWC V2.00 B2112,2013-03-20 08:09:00,
2013-03-20 04:14:00,39.2,8.9,29.91,WNW,303,0.0,0.0,28,0.00,,,0.00,LWC V2.00 B2112,2013-03-20 08:14:00,
2013-03-20 04:19:00,39.9,8.7,29.91,NW,304,0.0,0.0,27,0.00,,,0.00,LWC V2.00 B2112,2013-03-20 08:19:00,
2013-03-20 04:24:00,40.5,6.6,29.91,WNW,298,0.0,0.0,24,0.00,,,0.00,LWC V2.00 B2112,2013-03-20 08:24:00,
2013-03-20 04:29:00,40.9,8.7,29.92,WNW,290,0.0,0.0,26,0.00,,,0.00,LWC V2.00 B2112,2013-03-20 08:29:00,
2013-03-20 04:34:00,40.9,8.7,29.92,NNW,340,0.0,0.0,26,0.00,,,0.00,LWC V2.00 B2112,2013-03-20 08:34:00,
2013-03-20 04:39:00,40.8,8.6,29.92,NW,308,0.0,0.0,26,0.00,,,0.00,LWC V2.00 B2112,2013-03-20 08:39:00,
2013-03-20 04:44:00,40.5,7.5,29.92,NW,308,0.0,0.0,25,0.00,,,0.00,LWC V2.00 B2112,2013-03-20 08:44:00,
2013-03-20 04:49:00,40.2,6.3,29.92,NW,309,0.0,0.0,24,0.00,,,0.00,LWC V2.00 B2112,2013-03-20 08:49:00,
2013-03-20 04:54:00,40.2,8.1,29.92,NW,309,0.0,0.0,26,0.00,,,0.00,LWC V2.00 B2112,2013-03-20 08:54:00,
2013-03-20 04:59:00,39.9,9.5,29.91,NW,309,0.0,0.0,28,0.00,,,0.00,LWC V2.00 B2112,2013-03-20 08:59:00,
2013-03-20 05:04:00,39.6,9.2,29.91,NW,309,0.0,0.0,28,0.00,,,0.00,LWC V2.00 B2112,2013-03-20 09:04:00,
2013-03-20 05:09:00,39.2,8.9,29.91,NW,309,0.0,0.0,28,0.00,,,0.00,LWC V2.00 B2112,2013-03-20 09:09:00,
2013-03-20 05:14:00,38.8,9.3,29.92,NW,309,0.0,0.0,29,0.00,,,0.00,LWC V2.00 B2112,2013-03-20 09:14:00,
2013-03-20 05:19:00,38.3,7.3,29.92,NW,309,0.0,0.0,27,0.00,,,0.00,LWC V2.00 B2112,2013-03-20 09:19:00,
2013-03-20 05:24:00,37.9,6.9,29.92,NW,309,0.0,0.0,27,0.00,,,0.00,LWC V2.00 B2112,2013-03-20 09:24:00,
2013-03-20 05:29:00,37.5,7.4,29.93,NW,309,0.0,0.0,28,0.00,,,0.00,LWC V2.00 B2112,2013-03-20 09:29:00,
2013-03-20 05:34:00,37.2,6.3,29.93,NW,309,0.0,0.0,27,0.00,,,0.00,LWC V2.00 B2112,2013-03-20 09:34:00,
2013-03-20 05:39:00,36.9,6.9,29.93,NW,309,0.0,0.0,28,0.00,,,0.00,LWC V2.00 B2112,2013-03-20 09:39:00,
2013-03-20 05:44:00,36.8,8.3,29.93,NW,309,0.0,0.0,30,0.00,,,0.00,LWC V2.00 B2112,2013-03-20 09:44:00,
2013-03-20 05:49:00,36.3,7.9,29.93,NW,309,0.0,0.0,30,0.00,,,0.00,LWC V2.00 B2112,2013-03-20 09:49:00,
2013-03-20 05:54:00,36.2,9.9,29.93,NW,309,0.0,0.0,33,0.00,,,0.00,LWC V2.00 B2112,2013-03-20 09:54:00,
2013-03-20 05:59:00,35.8,9.5,29.92,NW,309,0.0,0.0,33,0.00,,,0.00,LWC V2.00 B2112,2013-03-20 09:59:00,
2013-03-20 06:04:00,35.5,9.9,29.92,NW,309,0.0,0.0,34,0.00,,,0.00,LWC V2.00 B2112,2013-03-20 10:04:00,
2013-03-20 06:09:00,35.2,9.0,29.92,NW,309,0.0,0.0,33,0.00,,,0.00,LWC V2.00 B2112,2013-03-20 10:09:00,
2013-03-20 06:14:00,35.2,10.3,29.93,NW,309,0.0,0.0,35,0.00,,,0.00,LWC V2.00 B2112,2013-03-20 10:14:00,
2013-03-20 06:19:00,35.2,9.7,29.93,NW,309,0.0,0.0,34,0.00,,,0.00,LWC V2.00 B2112,2013-03-20 10:19:00,
2013-03-20 06:24:00,35.2,10.3,29.93,NW,309,0.0,0.0,35,0.00,,,0.00,LWC V2.00 B2112,2013-03-20 10:24:00,
2013-03-20 06:29:00,35.3,11.7,29.94,NW,309,0.0,0.0,37,0.00,,,0.00,LWC V2.00 B2112,2013-03-20 10:29:00,
2013-03-20 06:34:00,35.3,14.0,29.94,NW,309,0.0,0.0,41,0.00,,,0.00,LWC V2.00 B2112,2013-03-20 10:34:00,
2013-03-20 06:39:00,35.3,13.4,29.94,NW,309,0.0,0.0,40,0.00,,,0.00,LWC V2.00 B2112,2013-03-20 10:39:00,
2013-03-20 06:44:00,35.2,13.3,29.95,NW,309,0.0,0.0,40,0.00,,,0.00,LWC V2.00 B2112,2013-03-20 10:44:00,
2013-03-20 06:49:00,35.0,12.0,29.95,NW,309,0.0,0.0,38,0.00,,,0.00,LWC V2.00 B2112,2013-03-20 10:49:00,
2013-03-20 06:54:00,34.9,11.9,29.95,NW,309,0.0,0.0,38,0.00,,,0.00,LWC V2.00 B2112,2013-03-20 10:54:00,
2013-03-20 06:59:00,34.9,13.6,29.95,NW,309,0.0,0.0,41,0.00,,,0.00,LWC V2.00 B2112,2013-03-20 10:59:00,
2013-03-20 07:04:00,34.9,13.1,29.95,NW,309,0.0,0.0,40,0.00,,,0.00,LWC V2.00 B2112,2013-03-20 11:04:00,
2013-03-20 07:09:00,34.7,12.9,29.95,NW,309,0.0,0.0,40,0.00,,,0.00,LWC V2.00 B2112,2013-03-20 11:09:00,
2013-03-20 07:14:00,34.6,15.0,29.96,NW,309,0.0,0.0,44,0.00,,,0.00,LWC V2.00 B2112,2013-03-20 11:14:00,
2013-03-20 07:19:00,34.6,13.3,29.96,NW,309,0.0,0.0,41,0.00,,,0.00,LWC V2.00 B2112,2013-03-20 11:19:00,
2013-03-20 07:24:00,34.4,14.8,29.96,NW,309,0.0,0.0,44,0.00,,,0.00,LWC V2.00 B2112,2013-03-20 11:24:00,
2013-03-20 07:29:00,34.3,15.7,29.97,NW,309,0.0,0.0,46,0.00,,,0.00,LWC V2.00 B2112,2013-03-20 11:29:00,
2013-03-20 07:39:00,34.3,15.2,29.97,NW,309,0.0,0.0,45,0.00,,,0.00,LWC V2.00 B2112,2013-03-20 11:39:00,
2013-03-20 07:44:00,34.3,14.7,29.97,NW,309,0.0,0.0,44,0.00,,,0.00,LWC V2.00 B2112,2013-03-20 11:44:00,
2013-03-20 07:49:00,34.3,13.6,29.97,NW,309,0.0,0.0,42,0.00,,,0.00,LWC V2.00 B2112,2013-03-20 11:49:00,
2013-03-20 07:54:00,34.3,15.7,29.97,NW,309,0.0,0.0,46,0.00,,,0.00,LWC V2.00 B2112,2013-03-20 11:54:00,
2013-03-20 07:59:00,34.6,15.0,29.98,NW,309,0.0,0.0,44,0.00,,,0.00,LWC V2.00 B2112,2013-03-20 11:59:00,
2013-03-20 08:04:00,34.7,14.5,29.98,NW,309,0.0,0.0,43,0.00,,,0.00,LWC V2.00 B2112,2013-03-20 12:04:00,
2013-03-20 08:09:00,35.0,18.7,29.98,NW,309,0.0,0.0,51,0.00,,,0.00,LWC V2.00 B2112,2013-03-20 12:09:00,
2013-03-20 08:14:00,35.3,20.8,29.99,NW,309,0.0,0.0,55,0.00,,,0.00,LWC V2.00 B2112,2013-03-20 12:14:00,
2013-03-20 08:19:00,35.9,23.4,29.99,NW,309,0.0,0.0,60,0.00,,,0.00,LWC V2.00 B2112,2013-03-20 12:19:00,
2013-03-20 08:24:00,36.3,24.9,29.99,NW,309,0.0,0.0,63,0.00,,,0.00,LWC V2.00 B2112,2013-03-20 12:24:00,
2013-03-20 08:29:00,36.6,20.7,29.98,NW,309,0.0,0.0,52,0.00,,,0.00,LWC V2.00 B2112,2013-03-20 12:29:00,
2013-03-20 08:34:00,37.0,20.1,29.98,NW,309,0.0,0.0,50,0.00,,,0.00,LWC V2.00 B2112,2013-03-20 12:34:00,
2013-03-20 08:39:00,37.3,19.4,29.98,NW,309,0.0,0.0,48,0.00,,,0.00,LWC V2.00 B2112,2013-03-20 12:39:00,
2013-03-20 08:44:00,37.8,21.8,30.00,SSW,208,0.0,0.0,52,0.00,,,0.00,LWC V2.00 B2112,2013-03-20 12:44:00,
2013-03-20 08:49:00,38.3,22.7,30.00,SSW,208,0.0,0.0,53,0.00,,,0.00,LWC V2.00 B2112,2013-03-20 12:49:00,
2013-03-20 08:54:00,38.8,17.7,30.00,SSW,208,0.0,0.0,42,0.00,,,0.00,LWC V2.00 B2112,2013-03-20 12:54:00,
2013-03-20 08:59:00,39.3,18.1,29.99,SSW,208,0.0,0.0,42,0.00,,,0.00,LWC V2.00 B2112,2013-03-20 12:59:00,
2013-03-20 09:04:00,40.1,18.3,29.99,SSW,208,0.0,0.0,41,0.00,,,0.00,LWC V2.00 B2112,2013-03-20 13:04:00,
2013-03-20 09:09:00,40.6,16.4,29.99,SSW,209,0.0,0.0,37,0.00,,,0.00,LWC V2.00 B2112,2013-03-20 13:09:00,
2013-03-20 09:14:00,41.2,15.6,30.01,SSW,212,0.0,0.0,35,0.00,,,0.00,LWC V2.00 B2112,2013-03-20 13:14:00,
2013-03-20 09:19:00,41.5,17.8,30.01,SSW,212,0.0,0.0,38,0.00,,,0.00,LWC V2.00 B2112,2013-03-20 13:19:00,
2013-03-20 09:24:00,41.9,18.2,30.01,SSW,212,0.0,0.0,38,0.00,,,0.00,LWC V2.00 B2112,2013-03-20 13:24:00,
2013-03-20 09:29:00,42.3,17.3,30.00,SSE,165,0.0,0.0,36,0.00,,,0.00,LWC V2.00 B2112,2013-03-20 13:29:00,
2013-03-20 09:34:00,42.8,16.4,30.00,SW,235,0.0,0.0,34,0.00,,,0.00,LWC V2.00 B2112,2013-03-20 13:34:00,
2013-03-20 09:39:00,43.2,15.4,30.00,SW,231,0.0,0.0,32,0.00,,,0.00,LWC V2.00 B2112,2013-03-20 13:39:00,
2013-03-20 09:44:00,43.5,14.9,30.01,WSW,255,0.0,0.0,31,0.00,,,0.00,LWC V2.00 B2112,2013-03-20 13:44:00,
2013-03-20 09:49:00,43.9,16.0,30.01,SW,222,0.0,0.0,32,0.00,,,0.00,LWC V2.00 B2112,2013-03-20 13:49:00,
2013-03-20 09:54:00,44.3,15.6,30.01,West,281,0.0,0.0,31,0.00,,,0.00,LWC V2.00 B2112,2013-03-20 13:54:00,
2013-03-20 09:59:00,44.5,14.2,30.01,West,269,0.0,0.0,29,0.00,,,0.00,LWC V2.00 B2112,2013-03-20 13:59:00,
2013-03-20 10:04:00,44.6,13.5,30.01,West,271,0.0,0.0,28,0.00,,,0.00,LWC V2.00 B2112,2013-03-20 14:04:00,
2013-03-20 10:09:00,44.9,14.6,30.01,West,267,0.0,0.0,29,0.00,,,0.00,LWC V2.00 B2112,2013-03-20 14:09:00,
2013-03-20 10:14:00,45.2,14.1,30.01,WNW,293,0.0,0.0,28,0.00,,,0.00,LWC V2.00 B2112,2013-03-20 14:14:00,
2013-03-20 10:19:00,45.1,14.0,30.01,NW,308,0.0,0.0,28,0.00,,,0.00,LWC V2.00 B2112,2013-03-20 14:19:00,
2013-03-20 10:24:00,44.9,12.1,30.01,NE,34,0.0,0.0,26,0.00,,,0.00,LWC V2.00 B2112,2013-03-20 14:24:00,
2013-03-20 10:29:00,44.9,15.4,30.01,NE,34,0.0,0.0,30,0.00,,,0.00,LWC V2.00 B2112,2013-03-20 14:29:00,
2013-03-20 10:34:00,45.4,15.8,30.01,West,274,0.0,0.0,30,0.00,,,0.00,LWC V2.00 B2112,2013-03-20 14:34:00,
2013-03-20 10:39:00,45.4,13.4,30.01,SSW,203,0.0,0.0,27,0.00,,,0.00,LWC V2.00 B2112,2013-03-20 14:39:00,
2013-03-20 10:44:00,45.4,12.5,30.01,SSW,203,0.0,0.0,26,0.00,,,0.00,LWC V2.00 B2112,2013-03-20 14:44:00,
2013-03-20 10:49:00,45.7,13.7,30.01,WNW,285,0.0,0.0,27,0.00,,,0.00,LWC V2.00 B2112,2013-03-20 14:49:00,
2013-03-20 10:54:00,45.8,12.9,30.01,NW,307,0.0,0.0,26,0.00,,,0.00,LWC V2.00 B2112,2013-03-20 14:54:00,
2013-03-20 10:59:00,46.1,10.4,30.00,NW,310,0.0,0.0,23,0.00,,,0.00,LWC V2.00 B2112,2013-03-20 14:59:00,
2013-03-20 11:04:00,46.4,13.4,30.00,ESE,121,0.0,0.0,26,0.00,,,0.00,LWC V2.00 B2112,2013-03-20 15:04:00,
2013-03-20 11:09:00,46.8,11.9,30.00,WSW,253,0.0,0.0,24,0.00,,,0.00,LWC V2.00 B2112,2013-03-20 15:09:00,
2013-03-20 11:14:00,47.0,14.8,30.00,West,272,0.0,0.0,27,0.00,,,0.00,LWC V2.00 B2112,2013-03-20 15:14:00,
2013-03-20 11:19:00,47.1,14.9,30.00,North,1,0.0,0.0,27,0.00,,,0.00,LWC V2.00 B2112,2013-03-20 15:19:00,
2013-03-20 11:24:00,47.1,10.2,30.00,WSW,238,0.0,0.0,22,0.00,,,0.00,LWC V2.00 B2112,2013-03-20 15:24:00,
2013-03-20 11:29:00,47.3,15.0,30.00,WSW,238,0.0,0.0,27,0.00,,,0.00,LWC V2.00 B2112,2013-03-20 15:29:00,
2013-03-20 11:34:00,47.6,13.5,30.00,SW,217,0.0,0.0,25,0.00,,,0.00,LWC V2.00 B2112,2013-03-20 15:34:00,
2013-03-20 11:39:00,47.7,12.7,30.00,South,179,0.0,0.0,24,0.00,,,0.00,LWC V2.00 B2112,2013-03-20 15:39:00,
2013-03-20 11:44:00,47.9,12.9,30.00,SSE,153,0.0,0.0,24,0.00,,,0.00,LWC V2.00 B2112,2013-03-20 15:44:00,
2013-03-20 11:49:00,47.9,15.5,30.00,West,270,0.0,0.0,27,0.00,,,0.00,LWC V2.00 B2112,2013-03-20 15:49:00,
2013-03-20 11:54:00,48.0,12.0,30.00,West,278,0.0,0.0,23,0.00,,,0.00,LWC V2.00 B2112,2013-03-20 15:54:00,
2013-03-20 11:59:00,48.2,12.2,29.99,WNW,298,0.0,0.0,23,0.00,,,0.00,LWC V2.00 B2112,2013-03-20 15:59:00,
2013-03-20 12:04:00,48.5,12.4,29.99,ENE,59,0.0,0.0,23,0.00,,,0.00,LWC V2.00 B2112,2013-03-20 16:04:00,
2013-03-20 12:09:00,48.9,14.6,29.99,ENE,59,0.0,0.0,25,0.00,,,0.00,LWC V2.00 B2112,2013-03-20 16:09:00,
2013-03-20 12:14:00,49.2,14.0,29.98,SSE,148,0.0,0.0,24,0.00,,,0.00,LWC V2.00 B2112,2013-03-20 16:14:00,
2013-03-20 12:19:00,49.2,16.7,29.98,WNW,283,0.0,0.0,27,0.00,,,0.00,LWC V2.00 B2112,2013-03-20 16:19:00,
2013-03-20 12:24:00,49.1,12.9,29.98,SW,233,0.0,0.0,23,0.00,,,0.00,LWC V2.00 B2112,2013-03-20 16:24:00,
2013-03-20 12:29:00,49.1,10.9,29.97,WSW,250,0.0,0.0,21,0.00,,,0.00,LWC V2.00 B2112,2013-03-20 16:29:00,
2013-03-20 12:34:00,49.4,16.8,29.97,South,176,0.0,0.0,27,0.00,,,0.00,LWC V2.00 B2112,2013-03-20 16:34:00,
2013-03-20 12:39:00,49.6,17.0,29.97,SSW,210,0.0,0.0,27,0.00,,,0.00,LWC V2.00 B2112,2013-03-20 16:39:00,
2013-03-20 12:44:00,49.6,11.3,29.97,WNW,283,0.0,0.0,21,0.00,,,0.00,LWC V2.00 B2112,2013-03-20 16:44:00,
2013-03-20 12:49:00,49.4,11.1,29.97,West,270,0.0,0.0,21,0.00,,,0.00,LWC V2.00 B2112,2013-03-20 16:49:00,
2013-03-20 12:54:00,49.2,12.0,29.97,WNW,288,0.0,0.0,22,0.00,,,0.00,LWC V2.00 B2112,2013-03-20 16:54:00,
2013-03-20 12:59:00,49.4,15.1,29.96,SW,229,0.0,0.0,25,0.00,,,0.00,LWC V2.00 B2112,2013-03-20 16:59:00,
2013-03-20 13:04:00,49.4,15.1,29.96,SW,233,0.0,0.0,25,0.00,,,0.00,LWC V2.00 B2112,2013-03-20 17:04:00,
2013-03-20 13:09:00,49.5,12.3,29.96,West,272,0.0,0.0,22,0.00,,,0.00,LWC V2.00 B2112,2013-03-20 17:09:00,
2013-03-20 13:14:00,49.6,16.1,29.95,West,277,0.0,0.0,26,0.00,,,0.00,LWC V2.00 B2112,2013-03-20 17:14:00,
2013-03-20 13:24:00,49.9,11.5,29.95,WNW,291,0.0,0.0,21,0.00,,,0.00,LWC V2.00 B2112,2013-03-20 17:24:00,
2013-03-20 13:29:00,49.9,14.6,29.94,NNW,346,0.0,0.0,24,0.00,,,0.00,LWC V2.00 B2112,2013-03-20 17:29:00,
2013-03-20 13:34:00,50.2,17.5,29.94,South,171,0.0,0.0,27,0.00,,,0.00,LWC V2.00 B2112,2013-03-20 17:34:00,
2013-03-20 13:39:00,50.4,15.9,29.94,NNE,31,0.0,0.0,25,0.00,,,0.00,LWC V2.00 B2112,2013-03-20 17:39:00,
2013-03-20 13:44:00,50.8,15.3,29.93,NNW,346,0.0,0.0,24,0.00,,,0.00,LWC V2.00 B2112,2013-03-20 17:44:00,
2013-03-20 13:49:00,51.3,14.8,29.93,SE,140,0.0,0.0,23,0.00,,,0.00,LWC V2.00 B2112,2013-03-20 17:49:00,
2013-03-20 13:54:00,51.9,16.3,29.93,West,263,0.0,0.0,24,0.00,,,0.00,LWC V2.00 B2112,2013-03-20 17:54:00,
2013-03-20 13:59:00,51.9,13.2,29.90,North,350,0.0,0.0,21,0.00,,,0.00,LWC V2.00 B2112,2013-03-20 17:59:00,
2013-03-20 14:04:00,51.7,15.1,29.90,SW,233,0.0,0.0,23,0.00,,,0.00,LWC V2.00 B2112,2013-03-20 18:04:00,
2013-03-20 14:09:00,52.2,19.2,29.90,NNW,338,0.0,0.0,27,0.00,,,0.00,LWC V2.00 B2112,2013-03-20 18:09:00,
2013-03-20 14:14:00,52.9,17.1,29.89,WSW,244,0.0,0.0,24,0.00,,,0.00,LWC V2.00 B2112,2013-03-20 18:14:00,
2013-03-20 14:19:00,53.2,14.3,29.89,WSW,256,0.0,0.0,21,0.00,,,0.00,LWC V2.00 B2112,2013-03-20 18:19:00,
2013-03-20 14:24:00,52.9,14.0,29.89,West,277,0.0,0.0,21,0.00,,,0.00,LWC V2.00 B2112,2013-03-20 18:24:00,
2013-03-20 14:29:00,53.1,14.2,29.88,SW,231,0.0,3.0,21,0.00,,,0.00,LWC V2.00 B2112,2013-03-20 18:29:00,
2013-03-20 14:34:00,53.5,18.6,29.88,SSW,207,0.0,0.0,25,0.00,,,0.00,LWC V2.00 B2112,2013-03-20 18:34:00,
2013-03-20 14:39:00,53.5,14.5,29.88,East,86,0.0,0.0,21,0.00,,,0.00,LWC V2.00 B2112,2013-03-20 18:39:00,
2013-03-20 14:44:00,53.2,14.3,29.87,SSE,164,0.0,5.0,21,0.00,,,0.00,LWC V2.00 B2112,2013-03-20 18:44:00,
2013-03-20 14:49:00,52.9,15.1,29.87,SW,224,0.0,0.0,22,0.00,,,0.00,LWC V2.00 B2112,2013-03-20 18:49:00,
2013-03-20 14:54:00,53.2,13.2,29.87,WSW,240,0.0,0.0,20,0.00,,,0.00,LWC V2.00 B2112,2013-03-20 18:54:00,
2013-03-20 14:59:00,53.6,15.7,29.86,NW,307,0.0,0.0,22,0.00,,,0.00,LWC V2.00 B2112,2013-03-20 18:59:00,
2013-03-20 15:04:00,53.6,15.7,29.86,SW,215,0.0,3.0,22,0.00,,,0.00,LWC V2.00 B2112,2013-03-20 19:04:00,
2013-03-20 15:09:00,53.6,14.6,29.86,WSW,239,0.0,0.0,21,0.00,,,0.00,LWC V2.00 B2112,2013-03-20 19:09:00,
2013-03-20 15:14:00,53.9,18.0,29.86,WNW,302,0.0,3.0,24,0.00,,,0.00,LWC V2.00 B2112,2013-03-20 19:14:00,
2013-03-20 15:19:00,54.2,19.2,29.86,WNW,282,0.0,11.0,25,0.00,,,0.00,LWC V2.00 B2112,2013-03-20 19:19:00,
2013-03-20 15:24:00,53.9,14.9,29.86,SW,230,0.0,3.0,21,0.00,,,0.00,LWC V2.00 B2112,2013-03-20 19:24:00,
2013-03-20 15:29:00,54.1,19.1,29.84,West,264,0.0,0.0,25,0.00,,,0.00,LWC V2.00 B2112,2013-03-20 19:29:00,
2013-03-20 15:34:00,54.5,17.5,29.84,WNW,293,0.0,0.0,23,0.00,,,0.00,LWC V2.00 B2112,2013-03-20 19:34:00,
2013-03-20 15:39:00,54.5,15.4,29.84,NW,319,0.0,0.0,21,0.00,,,0.00,LWC V2.00 B2112,2013-03-20 19:39:00,
2013-03-20 15:44:00,54.4,15.3,29.83,SSE,153,0.0,1.0,21,0.00,,,0.00,LWC V2.00 B2112,2013-03-20 19:44:00,
2013-03-20 15:49:00,54.1,13.9,29.83,South,174,0.0,5.0,20,0.00,,,0.00,LWC V2.00 B2112,2013-03-20 19:49:00,
2013-03-20 15:54:00,53.9,17.0,29.83,WSW,246,0.0,2.0,23,0.00,,,0.00,LWC V2.00 B2112,2013-03-20 19:54:00,
2013-03-20 15:59:00,54.4,19.3,29.81,SW,234,0.0,2.0,25,0.00,,,0.00,LWC V2.00 B2112,2013-03-20 19:59:00,
2013-03-20 16:04:00,54.2,12.9,29.81,SSE,160,0.0,0.0,19,0.00,,,0.00,LWC V2.00 B2112,2013-03-20 20:04:00,
2013-03-20 16:09:00,54.7,15.5,29.81,West,278,0.0,0.0,21,0.00,,,0.00,LWC V2.00 B2112,2013-03-20 20:09:00,
2013-03-20 16:14:00,54.8,15.6,29.81,SW,214,0.0,0.0,21,0.00,,,0.00,LWC V2.00 B2112,2013-03-20 20:14:00,
2013-03-20 16:19:00,55.0,13.5,29.81,South,176,0.0,0.0,19,0.00,,,0.00,LWC V2.00 B2112,2013-03-20 20:19:00,
2013-03-20 16:24:00,54.7,15.5,29.81,WSW,252,0.0,2.0,21,0.00,,,0.00,LWC V2.00 B2112,2013-03-20 20:24:00,
2013-03-20 16:29:00,54.7,16.6,29.79,SW,230,0.0,0.0,22,0.00,,,0.00,LWC V2.00 B2112,2013-03-20 20:29:00,
2013-03-20 16:34:00,55.0,15.8,29.79,WSW,255,0.0,0.0,21,0.00,,,0.00,LWC V2.00 B2112,2013-03-20 20:34:00,
2013-03-20 16:39:00,55.3,13.8,29.79,West,268,0.0,0.0,19,0.00,,,0.00,LWC V2.00 B2112,2013-03-20 20:39:00,
2013-03-20 16:44:00,55.4,15.0,29.79,SW,231,0.0,10.0,20,0.00,,,0.00,LWC V2.00 B2112,2013-03-20 20:44:00,
2013-03-20 16:49:00,55.4,17.2,29.79,SW,224,0.0,1.0,22,0.00,,,0.00,LWC V2.00 B2112,2013-03-20 20:49:00,
2013-03-20 16:54:00,55.6,14.0,29.79,SSW,200,0.0,2.0,19,0.00,,,0.00,LWC V2.00 B2112,2013-03-20 20:54:00,
2013-03-20 16:59:00,55.4,18.2,29.78,SSE,157,0.0,10.0,23,0.00,,,0.00,LWC V2.00 B2112,2013-03-20 20:59:00,
2013-03-20 17:04:00,55.4,15.0,29.78,SW,222,0.0,1.0,20,0.00,,,0.00,LWC V2.00 B2112,2013-03-20 21:04:00,
2013-03-20 17:09:00,55.7,16.4,29.78,WSW,257,0.0,0.0,21,0.00,,,0.00,LWC V2.00 B2112,2013-03-20 21:09:00,
2013-03-20 17:14:00,55.7,14.1,29.77,SW,223,0.0,3.0,19,0.00,,,0.00,LWC V2.00 B2112,2013-03-20 21:14:00,
2013-03-20 17:19:00,55.7,16.4,29.77,North,9,0.0,0.0,21,0.00,,,0.00,LWC V2.00 B2112,2013-03-20 21:19:00,
2013-03-20 17:24:00,56.0,16.6,29.77,SSE,155,0.0,0.0,21,0.00,,,0.00,LWC V2.00 B2112,2013-03-20 21:24:00,
2013-03-20 17:29:00,55.9,18.7,29.77,SSE,156,0.0,0.0,23,0.00,,,0.00,LWC V2.00 B2112,2013-03-20 21:29:00,
2013-03-20 17:34:00,55.7,17.5,29.77,West,261,0.0,2.0,22,0.00,,,0.00,LWC V2.00 B2112,2013-03-20 21:34:00,
2013-03-20 17:39:00,55.9,16.5,29.77,SSE,160,0.0,0.0,21,0.00,,,0.00,LWC V2.00 B2112,2013-03-20 21:39:00,
2013-03-20 17:44:00,55.6,14.0,29.77,WSW,258,0.0,1.0,19,0.00,,,0.00,LWC V2.00 B2112,2013-03-20 21:44:00,
2013-03-20 17:49:00,55.4,16.1,29.77,SSE,164,1.0,2.0,21,0.00,,,0.00,LWC V2.00 B2112,2013-03-20 21:49:00,
2013-03-20 17:54:00,55.0,15.8,29.77,SSW,195,0.0,4.0,21,0.00,,,0.00,LWC V2.00 B2112,2013-03-20 21:54:00,
2013-03-20 18:04:00,55.0,15.8,29.76,WNW,302,0.0,7.0,21,0.00,,,0.00,LWC V2.00 B2112,2013-03-20 22:04:00,
2013-03-20 18:09:00,54.7,15.5,29.76,SW,234,0.0,0.0,21,0.00,,,0.00,LWC V2.00 B2112,2013-03-20 22:09:00,
2013-03-20 18:14:00,54.4,15.3,29.77,SW,216,0.0,0.0,21,0.00,,,0.00,LWC V2.00 B2112,2013-03-20 22:14:00,
2013-03-20 18:19:00,54.4,15.3,29.77,SW,229,0.0,0.0,21,0.00,,,0.00,LWC V2.00 B2112,2013-03-20 22:19:00,
2013-03-20 18:24:00,54.4,16.4,29.77,SE,131,0.0,0.0,22,0.00,,,0.00,LWC V2.00 B2112,2013-03-20 22:24:00,
2013-03-20 18:29:00,54.1,15.0,29.77,SSW,207,0.0,0.0,21,0.00,,,0.00,LWC V2.00 B2112,2013-03-20 22:29:00,
2013-03-20 18:34:00,53.6,15.7,29.77,SW,217,0.0,0.0,22,0.00,,,0.00,LWC V2.00 B2112,2013-03-20 22:34:00,
2013-03-20 18:39:00,53.1,16.3,29.77,SW,215,0.0,0.0,23,0.00,,,0.00,LWC V2.00 B2112,2013-03-20 22:39:00,
2013-03-20 18:44:00,52.8,16.0,29.77,SW,234,0.0,0.0,23,0.00,,,0.00,LWC V2.00 B2112,2013-03-20 22:44:00,
2013-03-20 18:49:00,52.5,15.8,29.77,West,281,0.0,0.0,23,0.00,,,0.00,LWC V2.00 B2112,2013-03-20 22:49:00,
2013-03-20 18:54:00,52.2,16.5,29.77,WSW,241,0.0,0.0,24,0.00,,,0.00,LWC V2.00 B2112,2013-03-20 22:54:00,
2013-03-20 18:59:00,51.9,17.2,29.78,SSW,203,0.0,0.0,25,0.00,,,0.00,LWC V2.00 B2112,2013-03-20 22:59:00,
2013-03-20 19:04:00,51.6,16.0,29.78,West,271,0.0,0.0,24,0.00,,,0.00,LWC V2.00 B2112,2013-03-20 23:04:00,
2013-03-20 19:09:00,51.1,14.6,29.78,South,178,0.0,0.0,23,0.00,,,0.00,LWC V2.00 B2112,2013-03-20 23:09:00,
2013-03-20 19:14:00,51.0,15.5,29.77,SSW,203,0.0,0.0,24,0.00,,,0.00,LWC V2.00 B2112,2013-03-20 23:14:00,
2013-03-20 19:19:00,50.5,16.0,29.77,SW,214,0.0,0.0,25,0.00,,,0.00,LWC V2.00 B2112,2013-03-20 23:19:00,
2013-03-20 19:24:00,50.4,15.9,29.77,SSE,158,0.0,0.0,25,0.00,,,0.00,LWC V2.00 B2112,2013-03-20 23:24:00,
2013-03-20 19:34:00,49.6,15.2,29.77,SE,141,0.0,0.0,25,0.00,,,0.00,LWC V2.00 B2112,2013-03-20 23:34:00,
2013-03-20 19:39:00,49.2,16.7,29.77,SE,141,0.0,0.0,27,0.00,,,0.00,LWC V2.00 B2112,2013-03-20 23:39:00,
2013-03-20 19:44:00,48.8,16.3,29.76,SE,141,0.0,0.0,27,0.00,,,0.00,LWC V2.00 B2112,2013-03-20 23:44:00,
2013-03-20 19:49:00,48.2,16.6,29.76,SE,141,0.0,0.0,28,0.00,,,0.00,LWC V2.00 B2112,2013-03-20 23:49:00,
2013-03-20 19:54:00,47.7,17.0,29.76,SE,141,0.0,0.0,29,0.00,,,0.00,LWC V2.00 B2112,2013-03-20 23:54:00,
2013-03-20 19:59:00,47.4,16.0,29.76,SSW,202,0.0,0.0,28,0.00,,,0.00,LWC V2.00 B2112,2013-03-20 23:59:00,
2013-03-20 20:04:00,47.1,16.5,29.76,SSW,202,0.0,0.0,29,0.00,,,0.00,LWC V2.00 B2112,2013-03-21 00:04:00,
2013-03-20 20:09:00,47.0,15.6,29.76,SSW,202,0.0,0.0,28,0.00,,,0.00,LWC V2.00 B2112,2013-03-21 00:09:00,
2013-03-20 20:14:00,46.7,16.9,29.75,SSW,202,0.0,0.0,30,0.00,,,0.00,LWC V2.00 B2112,2013-03-21 00:14:00,
2013-03-20 20:19:00,46.2,17.3,29.75,SSW,202,0.0,0.0,31,0.00,,,0.00,LWC V2.00 B2112,2013-03-21 00:19:00,
2013-03-20 20:24:00,46.1,17.2,29.75,SSW,202,0.0,0.0,31,0.00,,,0.00,LWC V2.00 B2112,2013-03-21 00:24:00,
2013-03-20 20:29:00,46.0,17.8,29.76,SSW,193,0.0,0.0,32,0.00,,,0.00,LWC V2.00 B2112,2013-03-21 00:29:00,
2013-03-20 20:34:00,45.8,18.4,29.76,SSW,193,0.0,0.0,33,0.00,,,0.00,LWC V2.00 B2112,2013-03-21 00:34:00,
2013-03-20 20:39:00,45.5,18.1,29.76,SSW,193,0.0,0.0,33,0.00,,,0.00,LWC V2.00 B2112,2013-03-21 00:39:00,
2013-03-20 20:44:00,45.4,16.6,29.75,SSW,193,0.0,0.0,31,0.00,,,0.00,LWC V2.00 B2112,2013-03-21 00:44:00,
2013-03-20 20:49:00,45.1,17.0,29.75,SSW,193,0.0,0.0,32,0.00,,,0.00,LWC V2.00 B2112,2013-03-21 00:49:00,
2013-03-20 20:54:00,44.9,16.1,29.75,SSE,161,0.0,0.0,31,0.00,,,0.00,LWC V2.00 B2112,2013-03-21 00:54:00,
2013-03-20 20:59:00,44.9,17.6,29.75,SSE,161,0.0,0.0,33,0.00,,,0.00,LWC V2.00 B2112,2013-03-21 00:59:00,
2013-03-20 21:04:00,45.1,16.3,29.75,SSE,161,0.0,0.0,31,0.00,,,0.00,LWC V2.00 B2112,2013-03-21 01:04:00,
2013-03-20 21:09:00,45.4,16.6,29.75,SSE,161,0.0,0.0,31,0.00,,,0.00,LWC V2.00 B2112,2013-03-21 01:09:00,
2013-03-20 21:14:00,45.2,17.1,29.75,SSE,161,0.0,0.0,32,0.00,,,0.00,LWC V2.00 B2112,2013-03-21 01:14:00,
2013-03-20 21:19:00,44.9,17.6,29.75,SSE,161,0.0,0.0,33,0.00,,,0.00,LWC V2.00 B2112,2013-03-21 01:19:00,
2013-03-20 21:24:00,44.5,17.9,29.75,SSE,161,0.0,0.0,34,0.00,,,0.00,LWC V2.00 B2112,2013-03-21 01:24:00,
2013-03-20 21:29:00,44.1,18.2,29.75,SSE,161,0.0,0.0,35,0.00,,,0.00,LWC V2.00 B2112,2013-03-21 01:29:00,
2013-03-20 21:34:00,43.5,20.2,29.75,SSE,161,0.0,0.0,39,0.00,,,0.00,LWC V2.00 B2112,2013-03-21 01:34:00,
2013-03-20 21:39:00,43.3,18.2,29.75,SSW,194,0.0,0.0,36,0.00,,,0.00,LWC V2.00 B2112,2013-03-21 01:39:00,
2013-03-20 21:44:00,43.2,18.7,29.74,SSW,194,0.0,0.0,37,0.00,,,0.00,LWC V2.00 B2112,2013-03-21 01:44:00,
2013-03-20 21:49:00,43.1,18.6,29.74,SSW,194,0.0,0.0,37,0.00,,,0.00,LWC V2.00 B2112,2013-03-21 01:49:00,
2013-03-20 21:54:00,43.1,17.3,29.74,SSW,194,0.0,0.0,35,0.00,,,0.00,LWC V2.00 B2112,2013-03-21 01:54:00,
2013-03-20 21:59:00,42.9,19.1,29.74,SSW,194,0.0,0.0,38,0.00,,,0.00,LWC V2.00 B2112,2013-03-21 01:59:00,
2013-03-20 22:04:00,42.6,18.8,29.74,SSW,194,0.0,0.0,38,0.00,,,0.00,LWC V2.00 B2112,2013-03-21 02:04:00,
2013-03-20 22:09:00,42.5,17.4,29.74,SSW,194,0.0,0.0,36,0.00,,,0.00,LWC V2.00 B2112,2013-03-21 02:09:00,
2013-03-20 22:14:00,42.6,20.6,29.74,SSW,194,0.0,0.0,41,0.00,,,0.00,LWC V2.00 B2112,2013-03-21 02:14:00,
2013-03-20 22:19:00,42.1,20.1,29.74,SSW,194,0.0,0.0,41,0.00,,,0.00,LWC V2.00 B2112,2013-03-21 02:19:00,
2013-03-20 22:24:00,41.8,19.3,29.74,SSW,194,0.0,0.0,40,0.00,,,0.00,LWC V2.00 B2112,2013-03-21 02:24:00,
2013-03-20 22:29:00,41.9,18.2,29.74,SSW,194,0.0,0.0,38,0.00,,,0.00,LWC V2.00 B2112,2013-03-21 02:29:00,
2013-03-20 22:34:00,42.1,18.3,29.74,SSW,194,0.0,0.0,38,0.00,,,0.00,LWC V2.00 B2112,2013-03-21 02:34:00,
2013-03-20 22:39:00,42.1,18.3,29.74,SSW,194,0.0,0.0,38,0.00,,,0.00,LWC V2.00 B2112,2013-03-21 02:39:00,
2013-03-20 22:44:00,41.8,21.0,29.73,SSW,194,0.0,0.0,43,0.00,,,0.00,LWC V2.00 B2112,2013-03-21 02:44:00,
2013-03-20 22:49:00,41.2,20.4,29.73,SSW,194,0.0,0.0,43,0.00,,,0.00,LWC V2.00 B2112,2013-03-21 02:49:00,
2013-03-20 22:54:00,41.1,20.3,29.73,SSW,194,0.0,0.0,43,0.00,,,0.00,LWC V2.00 B2112,2013-03-21 02:54:00,
2013-03-20 22:59:00,40.9,19.0,29.73,SSW,194,0.0,0.0,41,0.00,,,0.00,LWC V2.00 B2112,2013-03-21 02:59:00,
2013-03-20 23:04:00,41.1,19.2,29.73,SSW,194,0.0,0.0,41,0.00,,,0.00,LWC V2.00 B2112,2013-03-21 03:04:00,
2013-03-20 23:14:00,40.9,19.0,29.72,South,184,0.0,0.0,41,0.00,,,0.00,LWC V2.00 B2112,2013-03-21 03:14:00,
2013-03-20 23:19:00,40.8,19.5,29.72,South,184,0.0,0.0,42,0.00,,,0.00,LWC V2.00 B2112,2013-03-21 03:19:00,
2013-03-20 23:24:00,40.6,19.9,29.72,South,184,0.0,0.0,43,0.00,,,0.00,LWC V2.00 B2112,2013-03-21 03:24:00,
2013-03-20 23:29:00,40.5,20.3,29.72,South,184,0.0,0.0,44,0.00,,,0.00,LWC V2.00 B2112,2013-03-21 03:29:00,
2013-03-20 23:34:00,40.3,20.1,29.72,South,184,0.0,0.0,44,0.00,,,0.00,LWC V2.00 B2112,2013-03-21 03:34:00,
2013-03-20 23:39:00,40.2,20.0,29.72,South,184,0.0,0.0,44,0.00,,,0.00,LWC V2.00 B2112,2013-03-21 03:39:00,
2013-03-20 23:44:00,40.2,20.6,29.71,South,184,0.0,0.0,45,0.00,,,0.00,LWC V2.00 B2112,2013-03-21 03:44:00,
2013-03-20 23:49:00,40.2,20.0,29.71,South,184,0.0,0.0,44,0.00,,,0.00,LWC V2.00 B2112,2013-03-21 03:49:00,
2013-03-20 23:54:00,40.3,20.7,29.71,South,184,0.0,0.0,45,0.00,,,0.00,LWC V2.00 B2112,2013-03-21 03:54:00,
2013-03-20 23:59:00,40.2,21.1,29.70,South,184,0.0,0.0,46,0.00,,,0.00,LWC V2.00 B2112,2013-03-21 03:59:00,